TimeCST,TemperatureF,Dew PointF,Humidity,Sea Level PressureIn,VisibilityMPH,Wind Direction,Wind SpeedMPH,Gust SpeedMPH,PrecipitationIn,Events,Conditions,WindDirDegrees,DateUTC
12:55 AM,19.0,10.0,68,29.81,10.0,West,13.8,32.2,0.00,,Overcast,270,2012-12-04 06:55:00
1:55 AM,16.0,6.1,65,29.85,10.0,West,19.6,33.4,0.00,,Scattered Clouds,270,2012-12-04 07:55:00
2:35 AM,14.0,5.0,67,29.82,10.0,West,18.4,25.3,N/A,,Mostly Cloudy,270,2012-12-04 08:35:00
2:55 AM,14.0,6.1,71,29.88,10.0,West,18.4,27.6,N/A,,Overcast,280,2012-12-04 08:55:00
3:55 AM,12.9,5.0,71,29.91,10.0,West,15.0,21.9,N/A,,Overcast,260,2012-12-04 09:55:00
4:55 AM,10.9,3.9,73,29.95,10.0,West,15.0,24.2,N/A,,Overcast,270,2012-12-04 10:55:00
5:55 AM,10.4,3.2,73,29.91,10.0,West,11.5,23.0,N/A,,Overcast,260,2012-12-04 11:55:00
6:55 AM,10.9,3.9,73,30.01,10.0,West,16.1,28.8,0.00,,Overcast,280,2012-12-04 12:55:00
7:55 AM,10.9,3.9,73,30.04,10.0,West,15.0,27.6,N/A,,Overcast,280,2012-12-04 13:55:00
8:55 AM,12.0,5.0,73,30.07,6.0,West,15.0,23.0,N/A,,Haze,280,2012-12-04 14:55:00
9:55 AM,12.9,6.1,74,30.11,4.0,West,16.1,25.3,0.00,,Overcast,280,2012-12-04 15:55:00
10:55 AM,16.0,8.1,71,30.14,3.0,West,16.1,25.3,0.00,Snow,Light Snow,280,2012-12-04 16:55:00
11:55 AM,18.0,9.0,68,30.16,7.0,WNW,19.6,27.6,0.00,Snow,Light Snow,290,2012-12-04 17:55:00
12:55 PM,19.0,10.0,68,30.20,10.0,WNW,15.0,26.5,0.00,,Overcast,290,2012-12-04 18:55:00
1:55 PM,19.0,10.0,68,30.23,10.0,WNW,13.8,21.9,N/A,,Overcast,290,2012-12-04 19:55:00
2:55 PM,19.0,10.0,68,30.27,10.0,WNW,10.4,19.6,0.00,,Overcast,290,2012-12-04 20:55:00
3:55 PM,19.0,10.9,71,30.30,10.0,West,10.4,-,N/A,,Overcast,280,2012-12-04 21:55:00
4:55 PM,19.0,10.9,71,30.33,10.0,West,6.9,-,N/A,,Overcast,280,2012-12-04 22:55:00
5:55 PM,18.0,12.0,78,30.35,10.0,West,8.1,-,N/A,,Overcast,280,2012-12-04 23:55:00
6:55 PM,18.0,12.0,78,30.38,10.0,WNW,6.9,-,N/A,,Overcast,290,2012-12-05 00:55:00
7:55 PM,18.0,12.0,78,30.40,10.0,WNW,5.8,-,N/A,,Overcast,290,2012-12-05 01:55:00
8:55 PM,19.0,12.9,77,30.39,10.0,WNW,4.6,-,N/A,,Overcast,300,2012-12-05 02:55:00
9:55 PM,19.0,14.0,81,30.40,10.0,Calm,Calm,-,N/A,,Overcast,0,2012-12-05 03:55:00
10:55 PM,19.9,10.9,68,30.42,10.0,East,3.5,-,N/A,,Overcast,80,2012-12-05 04:55:00
11:55 PM,16.0,12.0,84,30.44,10.0,SSW,3.5,-,N/A,,Mostly Cloudy,210,2012-12-05 05:55:00